Ocean Outback — 9V8072 — position and weather

sailwx.info

Track history (hours):
 
Tides and Currents Weather Stations Pressure Air Temp Water Temp Dewpoint Dewpoint Depression Visibility Wind Speed Wind Dir Waves Ship Positions

Ocean Outback

Last reported at 2014-Oct-22 02:18 UTC. Time now 2014-Oct-25 19:48 UTC.
Position N 01°13' E 103°40'.

Length 136 m; draft 5.9 m.

Type: Ship. MMSI: 563745000.

Date/timePositionNaut miles runAvg speedWind from/ knotsBaromVisibWave heightAir tempDewpointWater temp
2014-Oct-22 02:18N 01°13' E 103°40'6 8.5
2014-Oct-22 01:33N 01°16' E 103°46'2 2.1
2014-Oct-22 00:31N 01°15' E 103°48'0 0.0
2014-Oct-21 23:16N 01°15' E 103°48'0 0.0
2014-Oct-21 22:31N 01°15' E 103°48'0 0.0
2014-Oct-21 21:22N 01°15' E 103°48'0 0.0
2014-Oct-21 20:19N 01°15' E 103°48'0 0.0
2014-Oct-21 19:28N 01°15' E 103°48'0 0.0
2014-Oct-21 18:13N 01°15' E 103°48'0 0.0
2014-Oct-21 17:19N 01°15' E 103°48'0 0.0
2014-Oct-21 16:28N 01°15' E 103°48'0 0.0
2014-Oct-21 15:28N 01°15' E 103°48'0 0.0
2014-Oct-21 14:19N 01°15' E 103°48'0 0.0
2014-Oct-21 13:31N 01°15' E 103°48'0 0.0
2014-Oct-21 12:31N 01°15' E 103°48'0 0.0
2014-Oct-21 11:13N 01°15' E 103°48'0 0.0
2014-Oct-21 10:22N 01°15' E 103°48'0 0.0
2014-Oct-21 09:28N 01°15' E 103°48'0 0.0
2014-Oct-21 08:28N 01°15' E 103°48'0 0.0
2014-Oct-21 07:22N 01°15' E 103°48'0 0.0
2014-Oct-21 06:25N 01°15' E 103°48'0 0.0
2014-Oct-21 05:19N 01°15' E 103°48'0 0.0
2014-Oct-21 04:28N 01°15' E 103°48'0 0.0
2014-Oct-21 03:31N 01°15' E 103°48'0 0.0
2014-Oct-21 02:22N 01°15' E 103°48'0 0.0
2014-Oct-21 01:25N 01°15' E 103°48'0 0.0
2014-Oct-21 00:22N 01°15' E 103°48'0 0.1
2014-Oct-20 23:25N 01°15' E 103°48'0 0.1
2014-Oct-20 22:28N 01°15' E 103°48'0 0.0
2014-Oct-20 21:31N 01°15' E 103°48'0 0.0
2014-Oct-20 20:22N 01°15' E 103°48'0 0.1
2014-Oct-20 19:22N 01°15' E 103°48'0 0.1
2014-Oct-20 18:31N 01°15' E 103°48'0 0.0
2014-Oct-20 17:31N 01°15' E 103°48'0 0.1
2014-Oct-20 16:28N 01°15' E 103°48'0 0.1
2014-Oct-20 15:28N 01°15' E 103°48'0 0.1
2014-Oct-20 14:28N 01°15' E 103°48'0 0.1
2014-Oct-20 13:31N 01°15' E 103°48'0 0.0
2014-Oct-20 12:28N 01°15' E 103°48'0 0.1
2014-Oct-20 11:28N 01°15' E 103°48'0 0.0
2014-Oct-20 10:25N 01°15' E 103°48'0 0.0
2014-Oct-20 09:31N 01°15' E 103°48'0 0.0
2014-Oct-20 08:31N 01°15' E 103°48'0 0.1
2014-Oct-20 07:28N 01°15' E 103°48'0 0.0
2014-Oct-20 06:31N 01°15' E 103°48'0 0.0
2014-Oct-20 05:19N 01°15' E 103°48'0 0.0
2014-Oct-20 04:34N 01°15' E 103°48'2 2.4
2014-Oct-20 03:33N 01°13' E 103°49'0 0.0
2014-Oct-20 02:33N 01°13' E 103°49'3 2.5
2014-Oct-20 01:28N 01°13' E 103°52'9 9.8
2014-Oct-20 00:33N 01°16' E 104°01'7 7.1
2014-Oct-19 23:30N 01°16' E 104°08'7 6.7
2014-Oct-19 22:28N 01°18' E 104°15'10 0.3
2014-Oct-18 16:17N 01°15' E 104°05'810.2
2014-Oct-18 15:33N 01°13' E 103°57'7 7.4
2014-Oct-18 14:33N 01°11' E 103°50'12 3.4
2014-Oct-18 11:03N 01°12' E 103°38'  
Track history (hours):
 
Tides and Currents Weather Stations Pressure Air Temp Water Temp Dewpoint Dewpoint Depression Visibility Wind Speed Wind Dir Waves Ship Positions

Ocean Outback

Last reported at 2014-Oct-22 02:18 UTC. Time now 2014-Oct-25 19:48 UTC.
Position N 01°13' E 103°40'.

Length 136 m; draft 5.9 m.

Type: Ship. MMSI: 563745000.

Date/timePositionNaut miles runAvg speedWind from/ knotsBaromVisibWave heightAir tempDewpointWater temp
2014-Oct-22 02:18N 01°13' E 103°40'6 8.5
2014-Oct-22 01:33N 01°16' E 103°46'2 2.1
2014-Oct-22 00:31N 01°15' E 103°48'0 0.0
2014-Oct-21 23:16N 01°15' E 103°48'0 0.0
2014-Oct-21 22:31N 01°15' E 103°48'0 0.0
2014-Oct-21 21:22N 01°15' E 103°48'0 0.0
2014-Oct-21 20:19N 01°15' E 103°48'0 0.0
2014-Oct-21 19:28N 01°15' E 103°48'0 0.0
2014-Oct-21 18:13N 01°15' E 103°48'0 0.0
2014-Oct-21 17:19N 01°15' E 103°48'0 0.0
2014-Oct-21 16:28N 01°15' E 103°48'0 0.0
2014-Oct-21 15:28N 01°15' E 103°48'0 0.0
2014-Oct-21 14:19N 01°15' E 103°48'0 0.0
2014-Oct-21 13:31N 01°15' E 103°48'0 0.0
2014-Oct-21 12:31N 01°15' E 103°48'0 0.0
2014-Oct-21 11:13N 01°15' E 103°48'0 0.0
2014-Oct-21 10:22N 01°15' E 103°48'0 0.0
2014-Oct-21 09:28N 01°15' E 103°48'0 0.0
2014-Oct-21 08:28N 01°15' E 103°48'0 0.0
2014-Oct-21 07:22N 01°15' E 103°48'0 0.0
2014-Oct-21 06:25N 01°15' E 103°48'0 0.0
2014-Oct-21 05:19N 01°15' E 103°48'0 0.0
2014-Oct-21 04:28N 01°15' E 103°48'0 0.0
2014-Oct-21 03:31N 01°15' E 103°48'0 0.0
2014-Oct-21 02:22N 01°15' E 103°48'0 0.0
2014-Oct-21 01:25N 01°15' E 103°48'0 0.0
2014-Oct-21 00:22N 01°15' E 103°48'0 0.1
2014-Oct-20 23:25N 01°15' E 103°48'0 0.1
2014-Oct-20 22:28N 01°15' E 103°48'0 0.0
2014-Oct-20 21:31N 01°15' E 103°48'0 0.0
2014-Oct-20 20:22N 01°15' E 103°48'0 0.1
2014-Oct-20 19:22N 01°15' E 103°48'0 0.1
2014-Oct-20 18:31N 01°15' E 103°48'0 0.0
2014-Oct-20 17:31N 01°15' E 103°48'0 0.1
2014-Oct-20 16:28N 01°15' E 103°48'0 0.1
2014-Oct-20 15:28N 01°15' E 103°48'0 0.1
2014-Oct-20 14:28N 01°15' E 103°48'0 0.1
2014-Oct-20 13:31N 01°15' E 103°48'0 0.0
2014-Oct-20 12:28N 01°15' E 103°48'0 0.1
2014-Oct-20 11:28N 01°15' E 103°48'0 0.0
2014-Oct-20 10:25N 01°15' E 103°48'0 0.0
2014-Oct-20 09:31N 01°15' E 103°48'0 0.0
2014-Oct-20 08:31N 01°15' E 103°48'0 0.1
2014-Oct-20 07:28N 01°15' E 103°48'0 0.0
2014-Oct-20 06:31N 01°15' E 103°48'0 0.0
2014-Oct-20 05:19N 01°15' E 103°48'0 0.0
2014-Oct-20 04:34N 01°15' E 103°48'2 2.4
2014-Oct-20 03:33N 01°13' E 103°49'0 0.0
2014-Oct-20 02:33N 01°13' E 103°49'3 2.5
2014-Oct-20 01:28N 01°13' E 103°52'9 9.8
2014-Oct-20 00:33N 01°16' E 104°01'7 7.1
2014-Oct-19 23:30N 01°16' E 104°08'7 6.7
2014-Oct-19 22:28N 01°18' E 104°15'10 0.3
2014-Oct-18 16:17N 01°15' E 104°05'810.2
2014-Oct-18 15:33N 01°13' E 103°57'7 7.4
2014-Oct-18 14:33N 01°11' E 103°50'12 3.4
2014-Oct-18 11:03N 01°12' E 103°38'  

Dump ship's entire track history